Location: Frydek-Mistek
(49.6830°N, 18.3330°E)
Time: 00:44:30
(UTC+02:00)

ISS - Visible Passes

Search period start: 16 July 2018 00:00
Search period end: 26 July 2018 00:00
Orbit: 402 x 408 km, 51.6° (Epoch: 16 July)

Date Brightness Start Highest point End Pass type
(mag) Time Alt. Az. Time Alt. Az. Time Alt. Az.
16 Jul -3.7 00:59:18 60° ESE 00:59:18 60° ESE 01:02:12 10° ENE visible
16 Jul -3.3 02:32:14 10° W 02:35:30 59° N 02:38:46 10° ENE visible
16 Jul -3.8 04:08:51 10° WNW 04:12:10 86° NNE 04:15:28 10° ESE visible
17 Jul -2.2 00:08:36 23° E 00:08:36 23° E 00:10:05 10° ENE visible
17 Jul -3.5 01:41:13 20° W 01:43:22 66° N 01:46:40 10° ENE visible
17 Jul -3.5 03:16:46 10° WNW 03:20:04 69° N 03:23:22 10° E visible
17 Jul -1.3 23:17:38 11° E 23:17:38 11° E 23:17:52 10° E visible
18 Jul -3.8 00:50:13 41° W 00:51:15 80° NNW 00:54:34 10° ENE visible
18 Jul -3.3 02:24:39 10° WNW 02:27:55 61° N 02:31:11 10° E visible
18 Jul -3.8 04:01:13 10° WNW 04:04:28 61° SSW 04:07:43 10° SE visible
18 Jul -4.0 23:58:12 43° WSW 23:59:09 77° SSE 00:02:27 10° ENE visible
19 Jul -3.2 01:32:30 10° W 01:35:46 59° N 01:39:02 10° E visible
19 Jul -3.9 03:09:06 10° WNW 03:12:24 86° SSW 03:15:42 10° ESE visible
19 Jul -1.8 21:30:01 10° SSE 21:31:11 12° SE 21:32:22 10° ESE visible
19 Jul -3.8 23:03:53 10° SW 23:07:05 53° SSE 23:10:19 10° ENE visible
20 Jul -3.4 00:40:20 10° W 00:43:36 63° N 00:46:52 10° ENE visible
20 Jul -3.7 02:16:59 10° WNW 02:20:17 74° NNE 02:23:34 10° E visible
20 Jul -3.2 03:53:36 10° W 03:56:38 34° SSW 03:59:38 10° SE visible
20 Jul -3.2 22:12:04 10° SW 22:15:04 34° SSE 22:18:06 10° E visible
20 Jul -3.7 23:48:08 10° W 23:51:26 74° NNW 23:54:44 10° ENE visible
21 Jul -3.4 01:24:50 10° WNW 01:28:07 63° N 01:31:24 10° E visible
21 Jul -3.7 03:01:23 10° WNW 03:04:36 52° SSW 03:07:49 10° SE visible
21 Jul -2.6 21:20:29 10° SSW 21:23:05 22° SE 21:25:44 10° E visible
21 Jul -3.9 22:56:00 10° WSW 22:59:17 86° SSE 23:02:35 10° ENE visible
22 Jul -3.3 00:32:39 10° W 00:35:55 59° N 00:39:10 10° E visible
22 Jul -4.0 02:09:13 10° WNW 02:12:31 76° SSW 02:15:49 10° ESE visible
22 Jul -2.4 03:46:14 10° W 03:48:37 18° SW 03:50:59 10° S visible
22 Jul -3.9 22:03:55 10° WSW 22:07:10 61° SSE 22:10:25 10° ENE visible
22 Jul -3.3 23:40:27 10° W 23:43:42 60° N 23:46:59 10° ENE visible
23 Jul -3.8 01:17:04 10° WNW 01:20:22 81° NNE 01:20:47 64° E visible
23 Jul -3.5 22:48:13 10° W 22:51:29 69° N 22:54:47 10° ENE visible
24 Jul -3.5 00:24:54 10° WNW 00:28:11 66° N 00:29:05 42° ENE visible
24 Jul -1.2 02:01:28 10° WNW 02:01:41 11° W 02:01:41 11° W visible
24 Jul -3.8 21:56:00 10° WSW 21:59:17 85° NNW 22:02:35 10° ENE visible
24 Jul -3.3 23:32:42 10° WNW 23:35:57 59° N 23:38:04 20° E visible
25 Jul -2.1 01:09:14 10° WNW 01:10:41 24° W 01:10:41 24° W visible
25 Jul -3.3 22:40:27 10° W 22:43:42 59° N 22:46:58 10° ENE visible
